FW3802 Weather Reports


Display with metric or nautical units.
time (UTC)temp
F
wind
direction
speed
MPH
gust
MPH
rain 1hr
in
rain 24hr
in
rain mn
in
humidity
%
barometer
mb
20260503054657 46 349 0.0 0.0 0.00 0.00 0.00 74 1016.2
20260503054138 46 349 0.0 0.0 0.00 0.00 0.00 73 1016.1
20260503052657 46 349 0.0 0.0 0.00 0.00 0.00 72 1016.1
20260503051700 47 349 0.0 0.0 0.00 0.00 0.00 71 1016.1
20260503050657 47 349 0.0 0.0 0.00 0.00 0.00 69 1016.0
20260503045657 48 349 0.0 0.0 0.00 0.00 0.00 65 1016.0
20260503044656 48 349 0.0 0.0 0.00 0.00 0.00 65 1016.0
20260503043657 49 349 0.0 0.0 0.00 0.00 0.00 65 1015.9
20260503043135 49 349 0.0 0.0 0.00 0.00 0.00 62 1015.8
20260503041657 49 349 0.0 0.0 0.00 0.00 0.00 61 1015.7
20260503040656 50 349 0.0 0.0 0.00 0.00 0.00 61 1015.5
20260503035659 51 349 0.0 0.0 0.00 0.00 0.00 57 1015.5
20260503034701 52 349 0.0 0.0 0.00 0.00 0.00 55 1015.5
20260503033652 52 349 0.0 0.0 0.00 0.00 0.00 54 1015.3
20260503033140 53 349 0.0 0.0 0.00 0.00 0.00 54 1015.4
20260503032605 54 349 0.0 1.0 0.00 0.00 0.00 52 1015.3
20260503030653 54 354 0.0 3.0 0.00 0.00 0.00 50 1015.2
20260503025652 55 323 0.0 3.0 0.00 0.00 0.00 49 1015.1
20260503024652 55 328 0.0 3.0 0.00 0.00 0.00 48 1015.1
20260503023655 56 341 0.0 4.0 0.00 0.00 0.00 49 1015.0
20260503022648 56 15 1.0 4.0 0.00 0.00 0.00 50 1014.9
20260503021648 56 347 0.0 3.0 0.00 0.00 0.00 49 1014.9
20260503021131 57 315 0.0 4.0 0.00 0.00 0.00 49 1014.7
20260503015643 57 19 1.0 4.0 0.00 0.00 0.00 50 1014.5
20260503014643 57 351 0.0 2.0 0.00 0.00 0.00 50 1014.4
20260503013642 58 351 0.0 5.0 0.00 0.00 0.00 48 1014.2
20260503012643 58 338 0.0 4.0 0.00 0.00 0.00 49 1014.1
20260503011642 58 320 0.0 4.0 0.00 0.00 0.00 52 1013.9
20260503010645 58 347 0.0 1.0 0.00 0.00 0.00 55 1013.7
20260503005642 57 352 0.0 1.0 0.00 0.00 0.00 55 1013.6
20260503004643 58 357 0.0 1.0 0.00 0.00 0.00 58 1013.5
20260503003636 58 359 0.0 0.0 0.00 0.00 0.00 60 1013.3
20260503003124 58 1 0.0 2.0 0.00 0.00 0.00 66 1013.1
20260503001636 58 233 0.0 0.0 0.00 0.00 0.00 63 1012.8
20260503000639 58 233 0.0 1.0 0.00 0.00 0.00 65 1012.6
20260502235639 58 233 0.0 1.0 0.00 0.00 0.00 64 1012.6
20260502234637 58 269 0.0 1.0 0.00 0.00 0.00 62 1012.3
20260502233636 59 115 0.0 0.0 0.00 0.00 0.00 60 1012.1
20260502232637 59 115 0.0 0.0 0.00 0.00 0.00 57 1011.9
20260502231639 60 115 0.0 0.0 0.00 0.00 0.00 57 1011.7
20260502231103 60 115 0.0 0.0 0.00 0.00 0.00 54 1011.6
20260502225630 60 115 0.0 0.0 0.00 0.00 0.00 54 1011.5
20260502224630 61 115 0.0 0.0 0.00 0.00 0.00 51 1011.5
20260502223630 61 114 0.0 1.0 0.00 0.00 0.00 49 1011.4
20260502222630 62 247 0.0 2.0 0.00 0.00 0.00 47 1011.4
20260502221630 62 233 0.0 1.0 0.00 0.00 0.00 47 1011.3
20260502220630 62 231 0.0 1.0 0.00 0.00 0.00 46 1011.2
20260502215630 62 253 0.0 1.0 0.00 0.00 0.00 47 1011.2
20260502215104 62 13 0.0 1.0 0.00 0.00 0.00 47 1011.0
20260502214109 62 34 0.0 1.0 0.00 0.00 0.00 46 1011.1
20260502212628 62 169 0.0 1.0 0.00 0.00 0.00 48 1011.1
20260502211628 62 243 0.0 1.0 0.00 0.00 0.00 46 1011.1
20260502210629 61 209 0.0 2.0 0.00 0.00 0.00 46 1011.1
20260502205627 61 200 0.0 2.0 0.00 0.00 0.00 47 1011.0
20260502204628 60 341 1.0 5.0 0.00 0.00 0.00 45 1011.0
20260502203631 61 110 0.0 2.0 0.00 0.00 0.00 44 1011.1
20260502202629 61 254 1.0 3.0 0.00 0.00 0.00 44 1011.1
20260502201626 61 321 0.0 2.0 0.00 0.00 0.00 46 1011.2
20260502200625 60 142 0.0 2.0 0.00 0.00 0.00 47 1011.4
20260502195625 60 184 0.0 1.0 0.00 0.00 0.00 45 1011.6
20260502194626 59 315 0.0 2.0 0.00 0.00 0.00 45 1011.8
20260502193626 59 323 1.0 5.0 0.00 0.00 0.00 45 1011.8
20260502192629 59 124 0.0 2.0 0.00 0.00 0.00 46 1012.0
20260502191630 59 51 2.0 8.0 0.00 0.00 0.00 42 1012.1
20260502190625 59 295 1.0 6.0 0.00 0.00 0.00 45 1012.3
20260502185626 59 174 0.0 2.0 0.00 0.00 0.00 45 1012.5
20260502184625 59 106 0.0 2.0 0.00 0.00 0.00 44 1012.4
20260502184025 57 340 1.0 3.0 0.00 0.00 0.00 46 1012.6
20260502183757 58 316 1.0 5.0 0.00 0.00 0.00 44 1012.4
20260502182110 57 104 0.0 3.0 0.00 0.00 0.00 46 1012.7
20260502180626 57 297 0.0 5.0 0.00 0.00 0.00 45 1012.9
20260502163619 55 44 2.0 8.0 0.00 0.00 0.00 50 1013.9
20260502163104 55 70 0.0 5.0 0.00 0.00 0.00 52 1014.0
20260502161617 55 330 1.0 10.0 0.00 0.00 0.00 54 1014.2
20260502161059 55 11 1.0 5.0 0.00 0.00 0.00 54 1014.0
20260502151619 54 103 0.0 4.0 0.00 0.00 0.00 61 1014.2
20260502150609 54 311 1.0 4.0 0.00 0.00 0.00 65 1014.3
20260502130604 54 36 0.0 4.0 0.00 0.00 0.00 71 1013.3
20260502123216 54 24 1.0 5.0 0.00 0.00 0.00 70 1013.1
20260502123014 54 340 1.0 3.0 0.00 0.00 0.00 71 1013.0
20260502121036 54 319 1.0 5.0 0.00 0.00 0.00 72 1012.3
20260502115557 55 333 1.0 7.0 0.00 0.00 0.00 71 1012.7
20260502114557 55 36 0.0 3.0 0.00 0.00 0.00 71 1013.2
20260502113558 55 311 1.0 7.0 0.00 0.00 0.00 71 1012.9
20260502112557 55 336 0.0 6.0 0.00 0.00 0.00 72 1012.9
20260502112056 55 321 0.0 4.0 0.00 0.00 0.00 72 1012.6
20260502110557 55 50 1.0 9.0 0.00 0.00 0.00 72 1012.4
20260502105557 55 328 0.0 6.0 0.00 0.00 0.00 73 1012.5
20260502104600 55 243 0.0 4.0 0.00 0.00 0.00 73 1012.2
20260502103550 55 29 1.0 5.0 0.00 0.00 0.00 72 1012.4
20260502102552 55 348 1.0 4.0 0.00 0.00 0.00 73 1012.5
20260502102505 55 96 0.0 3.0 0.00 0.00 0.00 74 1012.1
20260502101027 55 300 1.0 5.0 0.00 0.00 0.00 73 1012.3
20260502090552 57 75 0.0 2.0 0.00 0.00 0.00 73 1013.2
20260502090501 57 357 0.0 2.0 0.00 0.00 0.00 74 1013.1
20260502070550 57 355 0.0 3.0 0.00 0.00 0.00 81 1012.0
20260502065547 58 285 1.0 4.0 0.00 0.00 0.00 81 1011.9
20260502064547 58 1 0.0 2.0 0.00 0.00 0.00 81 1011.7
20260502064021 58 140 0.0 0.0 0.00 0.00 0.00 81 1011.6
20260502062549 58 140 0.0 0.0 0.00 0.00 0.00 80 1011.7
20260502061548 58 140 0.0 0.0 0.00 0.00 0.00 80 1011.8